Regional Weather Roundup
Issued by NWS

Home | Current Version | Previous Version | Text Only | Print | Product List | Glossary On
Versions: 1 2 3 4 5 6 7 8 9 10 11 12 13 14 15 16 17 18 19 20 21 22 23 24 25 26 27 28 29 30 31 32 33 34 35 36 37 38 39 40 41 42 43 44 45 46 47 48 49 50
000
ASUS44 KFWD 260310
RWRTX
NORTH TEXAS HOURLY WEATHER ROUNDUP
NATIONAL WEATHER SERVICE FORT WORTH TX
1000 PM CDT FRI MAY 25 2018

NOTE: "FAIR" INDICATES FEW OR NO CLOUDS BELOW 12,000 FEET WITH NO
SIGNIFICANT WEATHER AND/OR OBSTRUCTIONS TO VISIBILITY.

TXZ118-119-260400-
DALLAS/FORT WORTH METROPLEX

CITY           SKY/WX    TMP DP  RH WIND       PRES   REMARKS
DFW AIRPORT    FAIR      78  58  49 S6        29.83R
DALLAS LOVE    FAIR      80  62  54 SE8       29.84R
FTW MEACHAM    FAIR      80  60  50 SE8       29.84R
DAL-EXECUTIVE  FAIR      75  63  66 SE7       29.84S
FTW-ALLIANCE   FAIR      79  58  48 S6        29.84R
FTW-NAS-JRB    FAIR      80  57  45 S8        29.85R
FTW-SPINKS     FAIR      75  62  63 S6        29.87R
ARLINGTON      FAIR      74  64  71 S5        29.85R
GRAND PRAIRIE  FAIR      77  60  55 SE3       29.86R
ADDISON        CLEAR     79  59  50 SE7       29.85F
MESQUITE       FAIR      72  68  86 SE5       29.86S
LANCASTER      FAIR      73  67  83 S3        29.86R
$$

TXZ091>094-102>105-117-120-121-131>134-260400-
NORTH CENTRAL TEXAS

CITY           SKY/WX    TMP DP  RH WIND       PRES   REMARKS
SHRMAN/DENISON FAIR      73  65  76 S8        29.83S
GAINESVILLE    FAIR      72  64  76 S6        29.86R
BOWIE          FAIR      75  61  61 SE6       29.84S
BRIDGEPORT     FAIR      77  56  48 S7        29.86S
DECATUR        FAIR      76  59  54 CALM      29.86R
DENTON         FAIR      74  60  61 S5        29.84R
MCKINNEY       FAIR      74  66  76 S7        29.83F
BONHAM         FAIR      70  66  87 NE12      29.85R
GREENVILLE     FAIR      77  68  73 S8        29.84F
ROCKWALL       FAIR      75  66  73 S8        29.85S
TERRELL        FAIR      75  65  70 SE6       29.86S
WAXAHACHIE     FAIR      72  65  80 S6        29.87S
CLEBURNE       FAIR      75  66  73 S7        29.88R
GRANBURY       FAIR      79  64  60 SE7       29.88R
$$

TXZ083>090-098>101-113>116-127>130-139>142-154-155-260400-
WESTERN NORTH TEXAS

CITY           SKY/WX    TMP DP  RH WIND       PRES   REMARKS
WICHITA FALLS  FAIR      80  57  45 S22G29    29.79F
WF-KICKAPOO    FAIR      82  59  45 S20G28    29.83F
VERNON         FAIR      87  48  25 S5        29.79R
ABILENE        FAIR      75  60  59 SE18G31   29.85R
ABILENE-DYESS  MOCLDY    81  55  41 NE25G31   29.92R
GRAHAM           N/A     82  64  54 CALM      29.93R
BRECKENRIDGE   MOCLDY    82  59  45 N14G29    29.96R
CISCO          FAIR      73  61  64 S12       29.87R
EASTLAND       FAIR      72  61  68 SE8       29.89R
RANGER         FAIR      69  63  80 SE3       29.90R
MINERAL WELLS  FAIR      76  62  62 SE13      29.85R
STEPHENVILLE   FAIR      76  66  71 SE6       29.92R
COMANCHE       FAIR      67  63  85 SE5       29.89R
BROWNWOOD      FAIR      72  63  73 S7        29.88S
COLEMAN        FAIR      76  59  54 S16       29.89S
BRADY          FAIR      77  64  65 SE22G31   29.93S
$$

TXZ143>147-156>162-174-175-260400-
CENTRAL TEXAS

CITY           SKY/WX    TMP DP  RH WIND       PRES   REMARKS
WACO           FAIR      79  64  60 SE7       29.86R
WACO-TSTC      CLEAR     79  64  61 SE5       29.85R
WACO-MCGREGOR  FAIR      80  66  62 SE9       29.87S
HILLSBORO      FAIR      76  64  66 SE9       29.86R
CORSICANA      FAIR      73  67  81 S7        29.86R
MEXIA          FAIR      73  66  78 S6        29.85S
HEARNE         FAIR      79  66  64 E6        29.87F
CAMERON        FAIR      80  69  68 SE6       29.85F
TEMPLE         FAIR      84  70  62 S8        29.87S
KILLEEN        MOCLDY    83  67  59 E12       29.84F
KILLEEN-SKYLRK FAIR      84  69  60 SE9       29.86F
FORT HOOD      LGT RAIN  84  67  57 SE12      29.82R
GATESVILLE     FAIR      81  68  65 CALM      29.88R
HAMILTON       FAIR      78  67  69 SE3       29.89R
LAMPASAS       FAIR      84  66  54 S14G23    29.82F
$$

TXZ095>097-106>112-122>126-135>138-148>153-164>167-260400-
EAST TEXAS

CITY           SKY/WX    TMP DP  RH WIND       PRES   REMARKS
PARIS          FAIR      70  67  90 CALM      29.86R
SULPHUR SPRNGS FAIR      74  64  69 CALM      29.87R
MOUNT PLEASANT FAIR      70  69  96 SE5       29.85F
GILMER         FAIR      71  68  89 CALM      29.86S
MINEOLA        FAIR      70  66  88 SE5       29.84F
TYLER          FAIR      73  65  75 SE5       29.86S
LONGVIEW       FAIR      71  70  96 NW5       29.87R
MARSHALL       FAIR      73  70  93 CALM      29.90R
ATHENS         FAIR      72  64  78 CALM      29.86S
PALESTINE      FAIR      74  68  83 SE5       29.87F
HENDERSON      FAIR      71  67  87 CALM      29.88S
CENTER         FAIR      73  70  91 CALM      29.89R
NACOGDOCHES      N/A     72  70  93 CALM      29.88R
LUFKIN         FAIR      75  70  84 CALM      29.87S
$$

SUPPLEMENTAL OBSERVATIONS (NWS FORT WORTH AREA)

CITY           SKY/WX    TMP DP  RH WIND       PRES   REMARKS
CADDO GRASSLND   N/A     70  64  83 S5          N/A
LBJ GRASSLAND    N/A     75  55  50 SE7         N/A
POSSUM KINGDOM   N/A     81  66  61 NW13G23     N/A
GRANBURY         N/A     79  64  61 SE7         N/A
MCGREGOR         N/A     79  68  69 E7G21       N/A
TEMPLE           N/A     82  68  61 S3G15       N/A
PALESTINE        N/A     72  70  94 SE3         N/A
$$

SUPPLEMENTAL OBSERVATIONS (NWS NORMAN AREA)

CITY           SKY/WX    TMP DP  RH WIND       PRES   REMARKS
GOODLETT         N/A     79  49  35 NE15G32   29.84R
ODELL            N/A     79  69  69 N10       29.84R
CROWELL          N/A     78  58  50 SW8       29.81R
KNOX CITY        N/A     76  60  57 SE18      29.82R
SEYMOUR          N/A     79  55  43 SE26      29.80F
MILLERS CREEK    N/A     82  55  39 E23G38      N/A
$$

SUPPLEMENTAL OBSERVATIONS (NWS SAN ANGELO AREA)

CITY           SKY/WX    TMP DP  RH WIND       PRES   REMARKS
WEINERT          N/A     77  58  51 E16       29.83F
HASKELL          N/A     72  57  59 E14G22    29.85S
THROCKMORTON     N/A     75  57  53 NE14G20   29.98R
STAMFORD         N/A     73  63  68 SE17      29.90F
CLYDE            N/A     74  60  61 S16       29.90R
HAMBY            N/A     77  57  50 VRB18G38    N/A
COLORADO BEND    N/A     84  64  51 SE9G26      N/A
$$

SUPPLEMENTAL OBSERVATIONS (NWS SHREVEPORT AREA)

CITY           SKY/WX    TMP DP  RH WIND       PRES   REMARKS
TEXARKANA        N/A     72  68  88 E1          N/A
LINDEN           N/A     73  70  88 SE1         N/A
LUFKIN           N/A     73  70  88 MISG        N/A
N SABINE NF      N/A     73  70  88 MISG        N/A
$$

SUPPLEMENTAL OBSERVATIONS ARE A COLLECTION OF AUTOMATED INSTRUMENTS
THAT ARE MAINTAINED BY A VARIETY OF FEDERAL AND STATE AGENCIES.
CERTAIN ELEMENTS...SUCH AS HUMIDITY VALUES AND SUSTAINED WIND
SPEEDS...MAY BE APPROXIMATED.





USA.gov is the U.S. government's official web portal to all federal, state and local government web resources and services.